TimeWEST,TemperatureF,Dew PointF,Humidity,Sea Level PressureIn,VisibilityMPH,Wind Direction,Wind SpeedMPH,Gust SpeedMPH,PrecipitationIn,Events,Conditions,WindDirDegrees,DateUTC
12:00 AM,66.2,50.0,56,30.15,6.2,NE,5.8,-,N/A,,Partly Cloudy,40,2013-06-06 23:00:00
12:30 AM,64.4,50.0,59,30.15,6.2,NNE,4.6,-,N/A,,Partly Cloudy,30,2013-06-06 23:30:00
1:00 AM,64,49,48,30.11,6,NE,4.6,,,,Scattered Clouds,40,2013-06-07 00:00:00
1:00 AM,64.4,48.2,56,30.12,6.2,NE,4.6,-,N/A,,Partly Cloudy,40,2013-06-07 00:00:00
4:00 AM,61,50,57,30.10,,NNE,4.6,,,,,20,2013-06-07 03:00:00
6:00 AM,57.2,50.0,77,30.12,6.2,SW,5.8,-,N/A,,Partly Cloudy,230,2013-06-07 05:00:00
6:30 AM,55.4,50.0,82,30.15,-9999.0,SW,6.9,-,N/A,,Clear,220,2013-06-07 05:30:00
7:00 AM,56,50,73,30.15,6,SW,6.9,,,,,220,2013-06-07 06:00:00
7:00 AM,55.4,50.0,82,30.15,-9999.0,SW,6.9,-,N/A,,Clear,220,2013-06-07 06:00:00
7:30 AM,57.2,50.0,77,30.15,-9999.0,SW,6.9,-,N/A,,Clear,220,2013-06-07 06:30:00
8:00 AM,57.2,50.0,77,30.15,-9999.0,WSW,5.8,-,N/A,,Clear,250,2013-06-07 07:00:00
8:30 AM,59.0,51.8,77,30.15,-9999.0,West,5.8,-,N/A,,Clear,280,2013-06-07 07:30:00
9:00 AM,60.8,51.8,72,30.18,-9999.0,WNW,5.8,-,N/A,,Clear,300,2013-06-07 08:00:00
9:30 AM,62.6,50.0,63,30.18,-9999.0,WNW,4.6,-,N/A,,Clear,300,2013-06-07 08:30:00
10:00 AM,65,51,51,30.15,6,NNW,4.6,,,,,340,2013-06-07 09:00:00
10:00 AM,64.4,51.8,64,30.18,-9999.0,Variable,3.5,-,N/A,,Clear,0,2013-06-07 09:00:00
10:30 AM,66.2,51.8,60,30.18,-9999.0,WNW,4.6,-,N/A,,Clear,290,2013-06-07 09:30:00
11:00 AM,68.0,51.8,56,30.18,-9999.0,North,4.6,-,N/A,,Clear,10,2013-06-07 10:00:00
11:30 AM,69.8,51.8,53,30.18,6.2,Variable,4.6,-,N/A,,Partly Cloudy,0,2013-06-07 10:30:00
12:00 PM,69.8,51.8,53,30.18,6.2,West,5.8,-,N/A,,Partly Cloudy,280,2013-06-07 11:00:00
1:00 PM,73,51,36,30.12,6,North,4.6,,,,Scattered Clouds,0,2013-06-07 12:00:00
1:00 PM,71.6,51.8,50,30.18,6.2,Variable,2.3,-,N/A,,Partly Cloudy,0,2013-06-07 12:00:00
2:00 PM,73.4,51.8,47,30.15,6.2,Variable,5.8,-,N/A,,Partly Cloudy,0,2013-06-07 13:00:00
2:30 PM,77.0,51.8,41,30.15,6.2,Variable,4.6,-,N/A,,Partly Cloudy,0,2013-06-07 13:30:00
3:00 PM,77.0,50.0,39,30.15,6.2,WNW,8.1,-,N/A,,Partly Cloudy,300,2013-06-07 14:00:00
3:46 PM,80,49,24,30.05,6,WNW,4.6,,,,Partly Cloudy,290,2013-06-07 14:46:00
4:00 PM,78.8,50.0,36,30.12,6.2,WNW,4.6,-,N/A,,Scattered Clouds,300,2013-06-07 15:00:00
4:30 PM,80.6,48.2,32,30.12,6.2,NW,5.8,-,N/A,,Scattered Clouds,320,2013-06-07 15:30:00
5:00 PM,80.6,48.2,32,30.09,6.2,East,3.5,-,N/A,,Scattered Clouds,100,2013-06-07 16:00:00
5:30 PM,80.6,48.2,32,30.09,6.2,NNE,5.8,-,N/A,,Scattered Clouds,20,2013-06-07 16:30:00
6:00 PM,80.6,46.4,30,30.09,6.2,Variable,3.5,-,N/A,,Scattered Clouds,0,2013-06-07 17:00:00
6:30 PM,80.6,46.4,30,30.09,6.2,North,3.5,-,N/A,,Scattered Clouds,10,2013-06-07 17:30:00
7:00 PM,81,46,19,30.01,6,North,5.8,,,,Scattered Clouds,0,2013-06-07 18:00:00
7:00 PM,80.6,46.4,30,30.09,6.2,North,5.8,-,N/A,,Partly Cloudy,350,2013-06-07 18:00:00
7:30 PM,80.6,46.4,30,30.09,6.2,North,8.1,-,N/A,,Partly Cloudy,360,2013-06-07 18:30:00
8:00 PM,78.8,46.4,32,30.09,6.2,NNW,8.1,-,N/A,,Partly Cloudy,340,2013-06-07 19:00:00
8:30 PM,77.0,48.2,36,30.09,6.2,North,10.4,-,N/A,,Partly Cloudy,350,2013-06-07 19:30:00
9:00 PM,75.2,51.8,44,30.12,6.2,North,11.5,-,N/A,,Partly Cloudy,360,2013-06-07 20:00:00
9:30 PM,73.4,51.8,47,30.12,-9999.0,North,11.5,-,N/A,,Clear,10,2013-06-07 20:30:00
10:00 PM,70,51,40,30.10,6,NNE,13.8,,,,,20,2013-06-07 21:00:00
10:00 PM,69.8,51.8,53,30.15,-9999.0,NNE,12.7,-,N/A,,Clear,30,2013-06-07 21:00:00
10:30 PM,68.0,50.0,52,30.15,-9999.0,NNE,13.8,-,N/A,,Clear,20,2013-06-07 21:30:00
11:00 PM,66.2,48.2,52,30.18,-9999.0,NNE,11.5,-,N/A,,Clear,30,2013-06-07 22:00:00
11:30 PM,66.2,48.2,52,30.18,-9999.0,NNE,8.1,-,N/A,,Clear,20,2013-06-07 22:30:00